Time,TemperatureF,DewpointF,PressureIn,WindDirection,WindDirectionDegrees,WindSpeedMPH,WindSpeedGustMPH,Humidity,HourlyPrecipIn,Conditions,Clouds,dailyrainin,SoftwareType,DateUTC
2013-11-13 00:02:00,24.9,11.8,30.56,SE,135,6.0,11.0,57,0.00,,,0.00,Weather View 32 v70,2013-11-13 06:02:00,
2013-11-13 00:07:00,24.9,11.8,30.56,SE,135,6.0,11.0,57,0.00,,,0.00,Weather View 32 v70,2013-11-13 06:07:00,
2013-11-13 00:12:00,24.9,11.8,30.56,SE,135,4.0,10.0,57,0.00,,,0.00,Weather View 32 v70,2013-11-13 06:12:00,
2013-11-13 00:17:00,24.9,11.8,30.56,SE,135,6.0,10.0,57,0.00,,,0.00,Weather View 32 v70,2013-11-13 06:17:00,
2013-11-13 00:22:00,24.7,12.0,30.56,SE,135,4.0,10.0,58,0.00,,,0.00,Weather View 32 v70,2013-11-13 06:22:00,
2013-11-13 00:27:00,24.6,11.9,30.55,SE,135,4.0,10.0,58,0.00,,,0.00,Weather View 32 v70,2013-11-13 06:27:00,
2013-11-13 00:32:00,24.5,12.2,30.55,SE,135,5.0,10.0,59,0.00,,,0.00,Weather View 32 v70,2013-11-13 06:32:00,
2013-11-13 00:37:00,24.4,12.5,30.55,SE,135,5.0,10.0,60,0.00,,,0.00,Weather View 32 v70,2013-11-13 06:37:00,
2013-11-13 00:42:00,24.6,12.7,30.55,SSW,202,2.0,10.0,60,0.00,,,0.00,Weather View 32 v70,2013-11-13 06:42:00,
2013-11-13 00:47:00,24.7,12.4,30.55,SE,135,4.0,10.0,59,0.00,,,0.00,Weather View 32 v70,2013-11-13 06:47:00,
2013-11-13 00:52:00,24.9,12.6,30.54,SE,135,5.0,10.0,59,0.00,,,0.00,Weather View 32 v70,2013-11-13 06:52:00,
2013-11-13 00:57:00,25.1,12.8,30.54,ESE,112,4.0,10.0,59,0.00,,,0.00,Weather View 32 v70,2013-11-13 06:57:00,
2013-11-13 01:02:00,25.2,12.5,30.54,SE,135,5.0,10.0,58,0.00,,,0.00,Weather View 32 v70,2013-11-13 07:02:00,
2013-11-13 01:07:00,25.3,12.6,30.54,SE,135,6.0,10.0,58,0.00,,,0.00,Weather View 32 v70,2013-11-13 07:07:00,
2013-11-13 01:12:00,25.2,12.5,30.54,SE,135,4.0,10.0,58,0.00,,,0.00,Weather View 32 v70,2013-11-13 07:12:00,
2013-11-13 01:17:00,24.9,13.0,30.53,ESE,112,5.0,10.0,60,0.00,,,0.00,Weather View 32 v70,2013-11-13 07:17:00,
2013-11-13 01:22:00,24.9,13.0,30.53,ESE,112,4.0,10.0,60,0.00,,,0.00,Weather View 32 v70,2013-11-13 07:22:00,
2013-11-13 01:27:00,24.9,13.0,30.53,SE,135,3.0,10.0,60,0.00,,,0.00,Weather View 32 v70,2013-11-13 07:27:00,
2013-11-13 01:32:00,24.8,13.3,30.53,SE,135,4.0,10.0,61,0.00,,,0.00,Weather View 32 v70,2013-11-13 07:32:00,
2013-11-13 01:37:00,24.9,13.0,30.53,ESE,112,4.0,10.0,60,0.00,,,0.00,Weather View 32 v70,2013-11-13 07:37:00,
2013-11-13 01:42:00,25.5,13.2,30.52,SE,135,4.0,10.0,59,0.00,,,0.00,Weather View 32 v70,2013-11-13 07:42:00,
2013-11-13 01:47:00,25.7,13.0,30.52,SSE,157,3.0,10.0,58,0.00,,,0.00,Weather View 32 v70,2013-11-13 07:47:00,
2013-11-13 01:52:00,25.7,13.0,30.52,SSE,157,4.0,10.0,58,0.00,,,0.00,Weather View 32 v70,2013-11-13 07:52:00,
2013-11-13 01:57:00,25.7,13.3,30.52,SE,135,6.0,11.0,59,0.00,,,0.00,Weather View 32 v70,2013-11-13 07:57:00,
2013-11-13 02:02:00,25.7,13.3,30.52,ESE,112,7.0,11.0,59,0.00,,,0.00,Weather View 32 v70,2013-11-13 08:02:00,
2013-11-13 02:07:00,25.7,13.3,30.52,ESE,112,7.0,11.0,59,0.00,,,0.00,Weather View 32 v70,2013-11-13 08:07:00,
2013-11-13 02:12:00,25.5,13.5,30.52,SE,135,5.0,11.0,60,0.00,,,0.00,Weather View 32 v70,2013-11-13 08:12:00,
2013-11-13 02:17:00,25.5,13.5,30.51,SE,135,8.0,13.0,60,0.00,,,0.00,Weather View 32 v70,2013-11-13 08:17:00,
2013-11-13 02:22:00,25.5,13.5,30.51,ESE,112,6.0,13.0,60,0.00,,,0.00,Weather View 32 v70,2013-11-13 08:22:00,
2013-11-13 02:27:00,25.5,13.5,30.51,ESE,112,5.0,13.0,60,0.00,,,0.00,Weather View 32 v70,2013-11-13 08:27:00,
2013-11-13 02:32:00,25.6,13.6,30.51,ESE,112,8.0,13.0,60,0.00,,,0.00,Weather View 32 v70,2013-11-13 08:32:00,
2013-11-13 02:37:00,25.5,13.5,30.51,ESE,112,4.0,13.0,60,0.00,,,0.00,Weather View 32 v70,2013-11-13 08:37:00,
2013-11-13 02:42:00,25.6,13.6,30.50,SE,135,5.0,13.0,60,0.00,,,0.00,Weather View 32 v70,2013-11-13 08:42:00,
2013-11-13 02:47:00,25.5,13.5,30.50,ESE,112,7.0,13.0,60,0.00,,,0.00,Weather View 32 v70,2013-11-13 08:47:00,
2013-11-13 02:52:00,25.3,13.7,30.50,SE,135,11.0,13.0,61,0.00,,,0.00,Weather View 32 v70,2013-11-13 08:52:00,
2013-11-13 02:57:00,25.2,13.6,30.50,South,180,6.0,13.0,61,0.00,,,0.00,Weather View 32 v70,2013-11-13 08:57:00,
2013-11-13 03:02:00,25.2,13.6,30.49,SE,135,6.0,13.0,61,0.00,,,0.00,Weather View 32 v70,2013-11-13 09:02:00,
2013-11-13 03:07:00,25.2,13.6,30.49,SE,135,12.0,13.0,61,0.00,,,0.00,Weather View 32 v70,2013-11-13 09:07:00,
2013-11-13 03:12:00,25.1,13.5,30.49,ESE,112,7.0,13.0,61,0.00,,,0.00,Weather View 32 v70,2013-11-13 09:12:00,
2013-11-13 06:26:00,24.9,15.5,30.37,ESE,112,7.0,7.0,67,0.00,,,0.00,Weather View 32 v70,2013-11-13 12:26:00,
2013-11-13 06:31:00,24.8,15.4,30.36,East,90,4.0,7.0,67,0.00,,,0.00,Weather View 32 v70,2013-11-13 12:31:00,
2013-11-13 06:36:00,24.8,15.7,30.36,ESE,112,6.0,9.0,68,0.00,,,0.00,Weather View 32 v70,2013-11-13 12:36:00,
2013-11-13 06:41:00,24.8,15.7,30.36,SE,135,4.0,9.0,68,0.00,,,0.00,Weather View 32 v70,2013-11-13 12:41:00,
2013-11-13 06:46:00,24.9,15.8,30.36,ESE,112,7.0,9.0,68,0.00,,,0.00,Weather View 32 v70,2013-11-13 12:46:00,
2013-11-13 06:51:00,25.1,16.4,30.36,SE,135,5.0,11.0,69,0.00,,,0.00,Weather View 32 v70,2013-11-13 12:51:00,
2013-11-13 06:56:00,25.1,16.4,30.36,SE,135,3.0,11.0,69,0.00,,,0.00,Weather View 32 v70,2013-11-13 12:56:00,
2013-11-13 07:01:00,25.1,16.7,30.36,South,180,4.0,11.0,70,0.00,,,0.00,Weather View 32 v70,2013-11-13 13:01:00,
2013-11-13 07:06:00,25.2,16.8,30.36,SE,135,4.0,11.0,70,0.00,,,0.00,Weather View 32 v70,2013-11-13 13:06:00,
2013-11-13 07:11:00,25.3,16.9,30.36,ESE,112,2.0,11.0,70,0.00,,,0.00,Weather View 32 v70,2013-11-13 13:11:00,
2013-11-13 07:16:00,25.5,17.1,30.36,ESE,112,6.0,11.0,70,0.00,,,0.00,Weather View 32 v70,2013-11-13 13:16:00,
2013-11-13 07:21:00,25.6,17.2,30.36,ESE,112,6.0,11.0,70,0.00,,,0.00,Weather View 32 v70,2013-11-13 13:21:00,
2013-11-13 07:26:00,25.9,17.5,30.36,ESE,112,5.0,11.0,70,0.00,,,0.00,Weather View 32 v70,2013-11-13 13:26:00,
2013-11-13 07:31:00,26.1,17.7,30.36,ESE,112,6.0,11.0,70,0.00,,,0.00,Weather View 32 v70,2013-11-13 13:31:00,
2013-11-13 07:36:00,26.4,17.9,30.36,SE,135,4.0,11.0,70,0.00,,,0.00,Weather View 32 v70,2013-11-13 13:36:00,
2013-11-13 07:41:00,26.6,17.8,30.35,ESE,112,4.0,11.0,69,0.00,,,0.00,Weather View 32 v70,2013-11-13 13:41:00,
2013-11-13 07:46:00,26.7,17.9,30.35,SE,135,7.0,11.0,69,0.00,,,0.00,Weather View 32 v70,2013-11-13 13:46:00,
2013-11-13 07:51:00,26.9,18.1,30.35,ESE,112,8.0,11.0,69,0.00,,,0.00,Weather View 32 v70,2013-11-13 13:51:00,
2013-11-13 07:56:00,27.1,18.3,30.34,ESE,112,6.0,11.0,69,0.00,,,0.00,Weather View 32 v70,2013-11-13 13:56:00,
2013-11-13 08:01:00,27.4,18.6,30.35,SE,135,7.0,11.0,69,0.00,,,0.00,Weather View 32 v70,2013-11-13 14:01:00,
2013-11-13 08:06:00,27.9,18.7,30.34,SE,135,1.0,11.0,68,0.00,,,0.00,Weather View 32 v70,2013-11-13 14:06:00,
2013-11-13 08:11:00,28.3,19.1,30.34,SE,135,3.0,11.0,68,0.00,,,0.00,Weather View 32 v70,2013-11-13 14:11:00,
2013-11-13 08:16:00,28.8,19.2,30.34,SE,135,4.0,11.0,67,0.00,,,0.00,Weather View 32 v70,2013-11-13 14:16:00,
2013-11-13 08:21:00,29.2,19.6,30.34,ESE,112,6.0,11.0,67,0.00,,,0.00,Weather View 32 v70,2013-11-13 14:21:00,
2013-11-13 08:26:00,29.7,19.7,30.34,SE,135,7.0,11.0,66,0.00,,,0.00,Weather View 32 v70,2013-11-13 14:26:00,
2013-11-13 08:31:00,29.9,19.9,30.34,SE,135,4.0,11.0,66,0.00,,,0.00,Weather View 32 v70,2013-11-13 14:31:00,
2013-11-13 08:36:00,30.4,20.0,30.33,SE,135,6.0,12.0,65,0.00,,,0.00,Weather View 32 v70,2013-11-13 14:36:00,
2013-11-13 08:41:00,30.8,20.4,30.33,SE,135,5.0,12.0,65,0.00,,,0.00,Weather View 32 v70,2013-11-13 14:41:00,
2013-11-13 08:46:00,31.2,20.8,30.33,ESE,112,7.0,12.0,65,0.00,,,0.00,Weather View 32 v70,2013-11-13 14:46:00,
2013-11-13 08:51:00,31.4,21.0,30.33,SSE,157,1.0,12.0,65,0.00,,,0.00,Weather View 32 v70,2013-11-13 14:51:00,
2013-11-13 08:57:00,31.7,21.3,30.33,SSE,157,4.0,12.0,65,0.00,,,0.00,Weather View 32 v70,2013-11-13 14:57:00,
2013-11-13 09:02:00,32.1,21.3,30.33,SE,135,6.0,12.0,64,0.00,,,0.00,Weather View 32 v70,2013-11-13 15:02:00,
2013-11-13 09:07:00,32.7,21.9,30.33,SSE,157,6.0,14.0,64,0.00,,,0.00,Weather View 32 v70,2013-11-13 15:07:00,
2013-11-13 09:12:00,33.4,22.5,30.33,SE,135,8.0,14.0,64,0.00,,,0.00,Weather View 32 v70,2013-11-13 15:12:00,
2013-11-13 09:17:00,33.8,22.5,30.32,ESE,112,3.0,14.0,63,0.00,,,0.00,Weather View 32 v70,2013-11-13 15:17:00,
2013-11-13 09:22:00,34.2,22.9,30.32,SE,135,4.0,14.0,63,0.00,,,0.00,Weather View 32 v70,2013-11-13 15:22:00,
2013-11-13 09:27:00,35.0,23.3,30.31,SSE,157,2.0,14.0,62,0.00,,,0.00,Weather View 32 v70,2013-11-13 15:27:00,
2013-11-13 09:32:00,35.7,23.6,30.31,SE,135,4.0,14.0,61,0.00,,,0.00,Weather View 32 v70,2013-11-13 15:32:00,
2013-11-13 09:37:00,36.1,23.9,30.31,SSW,202,3.0,19.0,61,0.00,,,0.00,Weather View 32 v70,2013-11-13 15:37:00,
2013-11-13 09:42:00,36.6,24.4,30.31,SE,135,4.0,19.0,61,0.00,,,0.00,Weather View 32 v70,2013-11-13 15:42:00,
2013-11-13 09:47:00,36.7,24.1,30.31,SSW,202,7.0,19.0,60,0.00,,,0.00,Weather View 32 v70,2013-11-13 15:47:00,
2013-11-13 09:52:00,36.7,24.1,30.31,SSW,202,7.0,19.0,60,0.00,,,0.00,Weather View 32 v70,2013-11-13 15:52:00,
2013-11-13 09:57:00,36.7,24.1,30.31,SSW,202,7.0,19.0,60,0.00,,,0.00,Weather View 32 v70,2013-11-13 15:57:00,
2013-11-13 10:02:00,36.7,24.1,30.31,SSW,202,7.0,19.0,60,0.00,,,0.00,Weather View 32 v70,2013-11-13 16:02:00,
2013-11-13 10:07:00,36.7,24.1,30.31,SSW,202,7.0,19.0,60,0.00,,,0.00,Weather View 32 v70,2013-11-13 16:07:00,
2013-11-13 10:12:00,36.7,24.1,30.31,SSW,202,7.0,19.0,60,0.00,,,0.00,Weather View 32 v70,2013-11-13 16:12:00,
2013-11-13 10:17:00,36.7,24.1,30.31,SSW,202,7.0,19.0,60,0.00,,,0.00,Weather View 32 v70,2013-11-13 16:17:00,
2013-11-13 10:22:00,36.7,24.1,30.31,SSW,202,7.0,19.0,60,0.00,,,0.00,Weather View 32 v70,2013-11-13 16:22:00,
2013-11-13 10:27:00,36.7,24.1,30.31,SSW,202,7.0,19.0,60,0.00,,,0.00,Weather View 32 v70,2013-11-13 16:27:00,
2013-11-13 10:32:00,36.7,24.1,30.31,SSW,202,7.0,19.0,60,0.00,,,0.00,Weather View 32 v70,2013-11-13 16:32:00,
2013-11-13 10:37:00,36.7,24.1,30.31,SSW,202,7.0,14.0,60,0.00,,,0.00,Weather View 32 v70,2013-11-13 16:37:00,
2013-11-13 10:42:00,36.7,24.1,30.31,SSW,202,7.0,7.0,60,0.00,,,0.00,Weather View 32 v70,2013-11-13 16:42:00,
2013-11-13 10:47:00,36.7,24.1,30.31,SSW,202,7.0,7.0,60,0.00,,,0.00,Weather View 32 v70,2013-11-13 16:47:00,
2013-11-13 10:52:00,36.7,24.1,30.31,SSW,202,7.0,7.0,60,0.00,,,0.00,Weather View 32 v70,2013-11-13 16:52:00,
2013-11-13 10:57:00,36.7,24.1,30.31,SSW,202,7.0,7.0,60,0.00,,,0.00,Weather View 32 v70,2013-11-13 16:57:00,
2013-11-13 11:02:00,36.7,24.1,30.31,SSW,202,7.0,7.0,60,0.00,,,0.00,Weather View 32 v70,2013-11-13 17:02:00,
2013-11-13 11:07:00,36.7,24.1,30.31,SSW,202,7.0,7.0,60,0.00,,,0.00,Weather View 32 v70,2013-11-13 17:07:00,
2013-11-13 11:12:00,36.7,24.1,30.31,SSW,202,7.0,7.0,60,0.00,,,0.00,Weather View 32 v70,2013-11-13 17:12:00,
2013-11-13 11:17:00,36.7,24.1,30.31,SSW,202,7.0,7.0,60,0.00,,,0.00,Weather View 32 v70,2013-11-13 17:17:00,
2013-11-13 11:22:00,36.7,24.1,30.31,SSW,202,7.0,7.0,60,0.00,,,0.00,Weather View 32 v70,2013-11-13 17:22:00,
2013-11-13 11:27:00,36.7,24.1,30.31,SSW,202,7.0,7.0,60,0.00,,,0.00,Weather View 32 v70,2013-11-13 17:27:00,
2013-11-13 11:33:00,36.7,24.1,30.31,SSW,202,7.0,7.0,60,0.00,,,0.00,Weather View 32 v70,2013-11-13 17:33:00,
2013-11-13 11:38:00,36.7,24.1,30.31,SSW,202,7.0,7.0,60,0.00,,,0.00,Weather View 32 v70,2013-11-13 17:38:00,
2013-11-13 11:43:00,36.7,24.1,30.31,SSW,202,7.0,7.0,60,0.00,,,0.00,Weather View 32 v70,2013-11-13 17:43:00,
2013-11-13 11:48:00,36.7,24.1,30.31,SSW,202,7.0,7.0,60,0.00,,,0.00,Weather View 32 v70,2013-11-13 17:48:00,
2013-11-13 11:53:00,36.7,24.1,30.31,SSW,202,7.0,7.0,60,0.00,,,0.00,Weather View 32 v70,2013-11-13 17:53:00,
2013-11-13 11:58:00,36.7,24.1,30.31,SSW,202,7.0,7.0,60,0.00,,,0.00,Weather View 32 v70,2013-11-13 17:58:00,
2013-11-13 12:03:00,36.7,24.1,30.31,SSW,202,7.0,7.0,60,0.00,,,0.00,Weather View 32 v70,2013-11-13 18:03:00,
2013-11-13 12:08:00,36.7,24.1,30.31,SSW,202,7.0,7.0,60,0.00,,,0.00,Weather View 32 v70,2013-11-13 18:08:00,
2013-11-13 12:13:00,36.7,24.1,30.31,SSW,202,7.0,7.0,60,0.00,,,0.00,Weather View 32 v70,2013-11-13 18:13:00,
2013-11-13 12:18:00,36.7,24.1,30.31,SSW,202,7.0,7.0,60,0.00,,,0.00,Weather View 32 v70,2013-11-13 18:18:00,
2013-11-13 12:23:00,36.7,24.1,30.31,SSW,202,7.0,7.0,60,0.00,,,0.00,Weather View 32 v70,2013-11-13 18:23:00,
2013-11-13 12:28:00,36.7,24.1,30.31,SSW,202,7.0,7.0,60,0.00,,,0.00,Weather View 32 v70,2013-11-13 18:28:00,
2013-11-13 12:33:00,36.7,24.1,30.31,SSW,202,7.0,7.0,60,0.00,,,0.00,Weather View 32 v70,2013-11-13 18:33:00,
2013-11-13 12:38:00,36.7,24.1,30.31,SSW,202,7.0,7.0,60,0.00,,,0.00,Weather View 32 v70,2013-11-13 18:38:00,
2013-11-13 12:43:00,36.7,24.1,30.31,SSW,202,7.0,7.0,60,0.00,,,0.00,Weather View 32 v70,2013-11-13 18:43:00,
2013-11-13 12:48:00,36.7,24.1,30.31,SSW,202,7.0,7.0,60,0.00,,,0.00,Weather View 32 v70,2013-11-13 18:48:00,
2013-11-13 12:53:00,36.7,24.1,30.31,SSW,202,7.0,7.0,60,0.00,,,0.00,Weather View 32 v70,2013-11-13 18:53:00,
2013-11-13 12:58:00,36.7,24.1,30.31,SSW,202,7.0,7.0,60,0.00,,,0.00,Weather View 32 v70,2013-11-13 18:58:00,
2013-11-13 13:03:00,36.7,24.1,30.31,SSW,202,7.0,7.0,60,0.00,,,0.00,Weather View 32 v70,2013-11-13 19:03:00,
2013-11-13 13:08:00,36.7,24.1,30.31,SSW,202,7.0,7.0,60,0.00,,,0.00,Weather View 32 v70,2013-11-13 19:08:00,
2013-11-13 13:13:00,36.7,24.1,30.31,SSW,202,7.0,7.0,60,0.00,,,0.00,Weather View 32 v70,2013-11-13 19:13:00,
2013-11-13 13:18:00,36.7,24.1,30.31,SSW,202,7.0,7.0,60,0.00,,,0.00,Weather View 32 v70,2013-11-13 19:18:00,
2013-11-13 13:23:00,36.7,24.1,30.31,SSW,202,7.0,7.0,60,0.00,,,0.00,Weather View 32 v70,2013-11-13 19:23:00,
2013-11-13 13:28:00,36.7,24.1,30.31,SSW,202,7.0,7.0,60,0.00,,,0.00,Weather View 32 v70,2013-11-13 19:28:00,
2013-11-13 13:33:00,36.7,24.1,30.31,SSW,202,7.0,7.0,60,0.00,,,0.00,Weather View 32 v70,2013-11-13 19:33:00,
2013-11-13 13:38:00,36.7,24.1,30.31,SSW,202,7.0,7.0,60,0.00,,,0.00,Weather View 32 v70,2013-11-13 19:38:00,
2013-11-13 13:43:00,36.7,24.1,30.31,SSW,202,7.0,7.0,60,0.00,,,0.00,Weather View 32 v70,2013-11-13 19:43:00,
2013-11-13 13:48:00,36.7,24.1,30.31,SSW,202,7.0,7.0,60,0.00,,,0.00,Weather View 32 v70,2013-11-13 19:48:00,
2013-11-13 13:53:00,36.7,24.1,30.31,SSW,202,7.0,7.0,60,0.00,,,0.00,Weather View 32 v70,2013-11-13 19:53:00,
2013-11-13 13:58:00,36.7,24.1,30.31,SSW,202,7.0,7.0,60,0.00,,,0.00,Weather View 32 v70,2013-11-13 19:58:00,
2013-11-13 14:03:00,36.7,24.1,30.31,SSW,202,7.0,7.0,60,0.00,,,0.00,Weather View 32 v70,2013-11-13 20:03:00,
2013-11-13 14:08:00,36.7,24.1,30.31,SSW,202,7.0,7.0,60,0.00,,,0.00,Weather View 32 v70,2013-11-13 20:08:00,
2013-11-13 14:14:00,36.7,24.1,30.31,SSW,202,7.0,7.0,60,0.00,,,0.00,Weather View 32 v70,2013-11-13 20:14:00,
2013-11-13 14:19:00,36.7,24.1,30.31,SSW,202,7.0,7.0,60,0.00,,,0.00,Weather View 32 v70,2013-11-13 20:19:00,
2013-11-13 14:24:00,36.7,24.1,30.31,SSW,202,7.0,7.0,60,0.00,,,0.00,Weather View 32 v70,2013-11-13 20:24:00,
2013-11-13 14:29:00,36.7,24.1,30.31,SSW,202,7.0,7.0,60,0.00,,,0.00,Weather View 32 v70,2013-11-13 20:29:00,
2013-11-13 14:34:00,36.7,24.1,30.31,SSW,202,7.0,7.0,60,0.00,,,0.00,Weather View 32 v70,2013-11-13 20:34:00,
2013-11-13 14:39:00,36.7,24.1,30.31,SSW,202,7.0,7.0,60,0.00,,,0.00,Weather View 32 v70,2013-11-13 20:39:00,
2013-11-13 14:44:00,36.7,24.1,30.31,SSW,202,7.0,7.0,60,0.00,,,0.00,Weather View 32 v70,2013-11-13 20:44:00,
2013-11-13 14:49:00,36.7,24.1,30.31,SSW,202,7.0,7.0,60,0.00,,,0.00,Weather View 32 v70,2013-11-13 20:49:00,
2013-11-13 14:54:00,36.7,24.1,30.31,SSW,202,7.0,7.0,60,0.00,,,0.00,Weather View 32 v70,2013-11-13 20:54:00,
2013-11-13 14:59:00,36.7,24.1,30.31,SSW,202,7.0,7.0,60,0.00,,,0.00,Weather View 32 v70,2013-11-13 20:59:00,
2013-11-13 15:04:00,36.7,24.1,30.31,SSW,202,7.0,7.0,60,0.00,,,0.00,Weather View 32 v70,2013-11-13 21:04:00,
2013-11-13 15:09:00,36.7,24.1,30.31,SSW,202,7.0,7.0,60,0.00,,,0.00,Weather View 32 v70,2013-11-13 21:09:00,
2013-11-13 15:14:00,36.7,24.1,30.31,SSW,202,7.0,7.0,60,0.00,,,0.00,Weather View 32 v70,2013-11-13 21:14:00,
2013-11-13 15:19:00,36.7,24.1,30.31,SSW,202,7.0,7.0,60,0.00,,,0.00,Weather View 32 v70,2013-11-13 21:19:00,
2013-11-13 15:24:00,36.7,24.1,30.31,SSW,202,7.0,7.0,60,0.00,,,0.00,Weather View 32 v70,2013-11-13 21:24:00,
2013-11-13 15:29:00,36.7,24.1,30.31,SSW,202,7.0,7.0,60,0.00,,,0.00,Weather View 32 v70,2013-11-13 21:29:00,
2013-11-13 15:34:00,36.7,24.1,30.31,SSW,202,7.0,7.0,60,0.00,,,0.00,Weather View 32 v70,2013-11-13 21:34:00,
2013-11-13 15:39:00,36.7,24.1,30.31,SSW,202,7.0,7.0,60,0.00,,,0.00,Weather View 32 v70,2013-11-13 21:39:00,
2013-11-13 15:44:00,36.7,24.1,30.31,SSW,202,7.0,7.0,60,0.00,,,0.00,Weather View 32 v70,2013-11-13 21:44:00,
2013-11-13 15:49:00,36.7,24.1,30.31,SSW,202,7.0,7.0,60,0.00,,,0.00,Weather View 32 v70,2013-11-13 21:49:00,
2013-11-13 15:54:00,36.7,24.1,30.31,SSW,202,7.0,7.0,60,0.00,,,0.00,Weather View 32 v70,2013-11-13 21:54:00,
2013-11-13 15:59:00,36.7,24.1,30.31,SSW,202,7.0,7.0,60,0.00,,,0.00,Weather View 32 v70,2013-11-13 21:59:00,
2013-11-13 16:04:00,36.7,24.1,30.31,SSW,202,7.0,7.0,60,0.00,,,0.00,Weather View 32 v70,2013-11-13 22:04:00,
2013-11-13 16:09:00,36.7,24.1,30.31,SSW,202,7.0,7.0,60,0.00,,,0.00,Weather View 32 v70,2013-11-13 22:09:00,
2013-11-13 16:14:00,36.7,24.1,30.31,SSW,202,7.0,7.0,60,0.00,,,0.00,Weather View 32 v70,2013-11-13 22:14:00,
2013-11-13 16:19:00,36.7,24.1,30.31,SSW,202,7.0,7.0,60,0.00,,,0.00,Weather View 32 v70,2013-11-13 22:19:00,
2013-11-13 16:24:00,36.7,24.1,30.31,SSW,202,7.0,7.0,60,0.00,,,0.00,Weather View 32 v70,2013-11-13 22:24:00,
2013-11-13 16:29:00,36.7,24.1,30.31,SSW,202,7.0,7.0,60,0.00,,,0.00,Weather View 32 v70,2013-11-13 22:29:00,
2013-11-13 16:34:00,36.7,24.1,30.31,SSW,202,7.0,7.0,60,0.00,,,0.00,Weather View 32 v70,2013-11-13 22:34:00,
2013-11-13 16:39:00,36.7,24.1,30.31,SSW,202,7.0,7.0,60,0.00,,,0.00,Weather View 32 v70,2013-11-13 22:39:00,
2013-11-13 16:44:00,36.7,24.1,30.31,SSW,202,7.0,7.0,60,0.00,,,0.00,Weather View 32 v70,2013-11-13 22:44:00,
2013-11-13 16:49:00,36.7,24.1,30.31,SSW,202,7.0,7.0,60,0.00,,,0.00,Weather View 32 v70,2013-11-13 22:49:00,
2013-11-13 16:54:00,36.7,24.1,30.31,SSW,202,7.0,7.0,60,0.00,,,0.00,Weather View 32 v70,2013-11-13 22:54:00,
2013-11-13 17:00:00,36.7,24.1,30.31,SSW,202,7.0,7.0,60,0.00,,,0.00,Weather View 32 v70,2013-11-13 23:00:00,
2013-11-13 17:05:00,36.7,24.1,30.31,SSW,202,7.0,7.0,60,0.00,,,0.00,Weather View 32 v70,2013-11-13 23:05:00,
2013-11-13 17:10:00,36.7,24.1,30.31,SSW,202,7.0,7.0,60,0.00,,,0.00,Weather View 32 v70,2013-11-13 23:10:00,
2013-11-13 17:15:00,36.7,24.1,30.31,SSW,202,7.0,7.0,60,0.00,,,0.00,Weather View 32 v70,2013-11-13 23:15:00,
2013-11-13 17:20:00,36.7,24.1,30.31,SSW,202,7.0,7.0,60,0.00,,,0.00,Weather View 32 v70,2013-11-13 23:20:00,
2013-11-13 17:25:00,36.7,24.1,30.31,SSW,202,7.0,7.0,60,0.00,,,0.00,Weather View 32 v70,2013-11-13 23:25:00,
2013-11-13 17:30:00,36.7,24.1,30.31,SSW,202,7.0,7.0,60,0.00,,,0.00,Weather View 32 v70,2013-11-13 23:30:00,
2013-11-13 17:35:00,36.7,24.1,30.31,SSW,202,7.0,7.0,60,0.00,,,0.00,Weather View 32 v70,2013-11-13 23:35:00,
2013-11-13 17:40:00,36.7,24.1,30.31,SSW,202,7.0,7.0,60,0.00,,,0.00,Weather View 32 v70,2013-11-13 23:40:00,
2013-11-13 17:45:00,36.7,24.1,30.31,SSW,202,7.0,7.0,60,0.00,,,0.00,Weather View 32 v70,2013-11-13 23:45:00,
2013-11-13 17:50:00,36.7,24.1,30.31,SSW,202,7.0,7.0,60,0.00,,,0.00,Weather View 32 v70,2013-11-13 23:50:00,
2013-11-13 17:55:00,36.7,24.1,30.31,SSW,202,7.0,7.0,60,0.00,,,0.00,Weather View 32 v70,2013-11-13 23:55:00,
2013-11-13 18:00:00,36.7,24.1,30.31,SSW,202,7.0,7.0,60,0.00,,,0.00,Weather View 32 v70,2013-11-14 00:00:00,
2013-11-13 18:05:00,36.7,24.1,30.31,SSW,202,7.0,7.0,60,0.00,,,0.00,Weather View 32 v70,2013-11-14 00:05:00,
2013-11-13 18:10:00,36.7,24.1,30.31,SSW,202,7.0,7.0,60,0.00,,,0.00,Weather View 32 v70,2013-11-14 00:10:00,
2013-11-13 18:15:00,36.7,24.1,30.31,SSW,202,7.0,7.0,60,0.00,,,0.00,Weather View 32 v70,2013-11-14 00:15:00,
2013-11-13 18:20:00,36.7,24.1,30.31,SSW,202,7.0,7.0,60,0.00,,,0.00,Weather View 32 v70,2013-11-14 00:20:00,
2013-11-13 18:25:00,36.7,24.1,30.31,SSW,202,7.0,7.0,60,0.00,,,0.00,Weather View 32 v70,2013-11-14 00:25:00,
2013-11-13 18:30:00,36.7,24.1,30.31,SSW,202,7.0,7.0,60,0.00,,,0.00,Weather View 32 v70,2013-11-14 00:30:00,
2013-11-13 18:35:00,36.7,24.1,30.31,SSW,202,7.0,7.0,60,0.00,,,0.00,Weather View 32 v70,2013-11-14 00:35:00,
2013-11-13 18:40:00,36.7,24.1,30.31,SSW,202,7.0,7.0,60,0.00,,,0.00,Weather View 32 v70,2013-11-14 00:40:00,
2013-11-13 18:45:00,36.7,24.1,30.31,SSW,202,7.0,7.0,60,0.00,,,0.00,Weather View 32 v70,2013-11-14 00:45:00,
2013-11-13 18:50:00,36.7,24.1,30.31,SSW,202,7.0,7.0,60,0.00,,,0.00,Weather View 32 v70,2013-11-14 00:50:00,
2013-11-13 18:55:00,36.7,24.1,30.31,SSW,202,7.0,7.0,60,0.00,,,0.00,Weather View 32 v70,2013-11-14 00:55:00,
2013-11-13 19:00:00,36.7,24.1,30.31,SSW,202,7.0,7.0,60,0.00,,,0.00,Weather View 32 v70,2013-11-14 01:00:00,
2013-11-13 19:05:00,36.7,24.1,30.31,SSW,202,7.0,7.0,60,0.00,,,0.00,Weather View 32 v70,2013-11-14 01:05:00,
2013-11-13 19:10:00,36.7,24.1,30.31,SSW,202,7.0,7.0,60,0.00,,,0.00,Weather View 32 v70,2013-11-14 01:10:00,
2013-11-13 19:15:00,36.7,24.1,30.31,SSW,202,7.0,7.0,60,0.00,,,0.00,Weather View 32 v70,2013-11-14 01:15:00,
2013-11-13 19:20:00,36.7,24.1,30.31,SSW,202,7.0,7.0,60,0.00,,,0.00,Weather View 32 v70,2013-11-14 01:20:00,
2013-11-13 19:25:00,36.7,24.1,30.31,SSW,202,7.0,7.0,60,0.00,,,0.00,Weather View 32 v70,2013-11-14 01:25:00,
2013-11-13 19:30:00,36.7,24.1,30.31,SSW,202,7.0,7.0,60,0.00,,,0.00,Weather View 32 v70,2013-11-14 01:30:00,
2013-11-13 19:35:00,36.7,24.1,30.31,SSW,202,7.0,7.0,60,0.00,,,0.00,Weather View 32 v70,2013-11-14 01:35:00,
2013-11-13 19:40:00,36.7,24.1,30.31,SSW,202,7.0,7.0,60,0.00,,,0.00,Weather View 32 v70,2013-11-14 01:40:00,
2013-11-13 19:45:00,36.7,24.1,30.31,SSW,202,7.0,7.0,60,0.00,,,0.00,Weather View 32 v70,2013-11-14 01:45:00,
2013-11-13 19:51:00,36.7,24.1,30.31,SSW,202,7.0,7.0,60,0.00,,,0.00,Weather View 32 v70,2013-11-14 01:51:00,
2013-11-13 19:56:00,36.7,24.1,30.31,SSW,202,7.0,7.0,60,0.00,,,0.00,Weather View 32 v70,2013-11-14 01:56:00,
2013-11-13 20:01:00,36.7,24.1,30.31,SSW,202,7.0,7.0,60,0.00,,,0.00,Weather View 32 v70,2013-11-14 02:01:00,
2013-11-13 20:06:00,36.7,24.1,30.31,SSW,202,7.0,7.0,60,0.00,,,0.00,Weather View 32 v70,2013-11-14 02:06:00,
2013-11-13 20:11:00,36.7,24.1,30.31,SSW,202,7.0,7.0,60,0.00,,,0.00,Weather View 32 v70,2013-11-14 02:11:00,
2013-11-13 20:16:00,36.7,24.1,30.31,SSW,202,7.0,7.0,60,0.00,,,0.00,Weather View 32 v70,2013-11-14 02:16:00,
2013-11-13 20:21:00,36.7,24.1,30.31,SSW,202,7.0,7.0,60,0.00,,,0.00,Weather View 32 v70,2013-11-14 02:21:00,
2013-11-13 20:26:00,36.7,24.1,30.31,SSW,202,7.0,7.0,60,0.00,,,0.00,Weather View 32 v70,2013-11-14 02:26:00,
2013-11-13 20:31:00,36.7,24.1,30.31,SSW,202,7.0,7.0,60,0.00,,,0.00,Weather View 32 v70,2013-11-14 02:31:00,
2013-11-13 20:36:00,36.7,24.1,30.31,SSW,202,7.0,7.0,60,0.00,,,0.00,Weather View 32 v70,2013-11-14 02:36:00,
2013-11-13 20:41:00,36.7,24.1,30.31,SSW,202,7.0,7.0,60,0.00,,,0.00,Weather View 32 v70,2013-11-14 02:41:00,
2013-11-13 20:46:00,36.7,24.1,30.31,SSW,202,7.0,7.0,60,0.00,,,0.00,Weather View 32 v70,2013-11-14 02:46:00,
2013-11-13 20:51:00,36.7,24.1,30.31,SSW,202,7.0,7.0,60,0.00,,,0.00,Weather View 32 v70,2013-11-14 02:51:00,
2013-11-13 20:56:00,36.7,24.1,30.31,SSW,202,7.0,7.0,60,0.00,,,0.00,Weather View 32 v70,2013-11-14 02:56:00,
2013-11-13 21:01:00,36.7,24.1,30.31,SSW,202,7.0,7.0,60,0.00,,,0.00,Weather View 32 v70,2013-11-14 03:01:00,
2013-11-13 21:06:00,36.7,24.1,30.31,SSW,202,7.0,7.0,60,0.00,,,0.00,Weather View 32 v70,2013-11-14 03:06:00,
2013-11-13 21:11:00,36.7,24.1,30.31,SSW,202,7.0,7.0,60,0.00,,,0.00,Weather View 32 v70,2013-11-14 03:11:00,
2013-11-13 21:16:00,36.7,24.1,30.31,SSW,202,7.0,7.0,60,0.00,,,0.00,Weather View 32 v70,2013-11-14 03:16:00,
2013-11-13 21:21:00,36.7,24.1,30.31,SSW,202,7.0,7.0,60,0.00,,,0.00,Weather View 32 v70,2013-11-14 03:21:00,
2013-11-13 21:26:00,36.7,24.1,30.31,SSW,202,7.0,7.0,60,0.00,,,0.00,Weather View 32 v70,2013-11-14 03:26:00,
2013-11-13 21:31:00,36.7,24.1,30.31,SSW,202,7.0,7.0,60,0.00,,,0.00,Weather View 32 v70,2013-11-14 03:31:00,
2013-11-13 21:36:00,36.7,24.1,30.31,SSW,202,7.0,7.0,60,0.00,,,0.00,Weather View 32 v70,2013-11-14 03:36:00,
2013-11-13 21:41:00,36.7,24.1,30.31,SSW,202,7.0,7.0,60,0.00,,,0.00,Weather View 32 v70,2013-11-14 03:41:00,
2013-11-13 21:46:00,36.7,24.1,30.31,SSW,202,7.0,7.0,60,0.00,,,0.00,Weather View 32 v70,2013-11-14 03:46:00,
2013-11-13 21:51:00,36.7,24.1,30.31,SSW,202,7.0,7.0,60,0.00,,,0.00,Weather View 32 v70,2013-11-14 03:51:00,
2013-11-13 21:56:00,36.7,24.1,30.31,SSW,202,7.0,7.0,60,0.00,,,0.00,Weather View 32 v70,2013-11-14 03:56:00,
2013-11-13 22:01:00,36.7,24.1,30.31,SSW,202,7.0,7.0,60,0.00,,,0.00,Weather View 32 v70,2013-11-14 04:01:00,
2013-11-13 22:06:00,36.7,24.1,30.31,SSW,202,7.0,7.0,60,0.00,,,0.00,Weather View 32 v70,2013-11-14 04:06:00,
2013-11-13 22:11:00,36.7,24.1,30.31,SSW,202,7.0,7.0,60,0.00,,,0.00,Weather View 32 v70,2013-11-14 04:11:00,
2013-11-13 22:16:00,36.7,24.1,30.31,SSW,202,7.0,7.0,60,0.00,,,0.00,Weather View 32 v70,2013-11-14 04:16:00,
2013-11-13 22:21:00,36.7,24.1,30.31,SSW,202,7.0,7.0,60,0.00,,,0.00,Weather View 32 v70,2013-11-14 04:21:00,
2013-11-13 22:26:00,36.7,24.1,30.31,SSW,202,7.0,7.0,60,0.00,,,0.00,Weather View 32 v70,2013-11-14 04:26:00,
2013-11-13 22:32:00,36.7,24.1,30.31,SSW,202,7.0,7.0,60,0.00,,,0.00,Weather View 32 v70,2013-11-14 04:32:00,
2013-11-13 22:37:00,36.7,24.1,30.31,SSW,202,7.0,7.0,60,0.00,,,0.00,Weather View 32 v70,2013-11-14 04:37:00,
2013-11-13 22:42:00,36.7,24.1,30.31,SSW,202,7.0,7.0,60,0.00,,,0.00,Weather View 32 v70,2013-11-14 04:42:00,
2013-11-13 22:47:00,36.7,24.1,30.31,SSW,202,7.0,7.0,60,0.00,,,0.00,Weather View 32 v70,2013-11-14 04:47:00,
2013-11-13 22:52:00,36.7,24.1,30.31,SSW,202,7.0,7.0,60,0.00,,,0.00,Weather View 32 v70,2013-11-14 04:52:00,
2013-11-13 22:57:00,36.7,24.1,30.31,SSW,202,7.0,7.0,60,0.00,,,0.00,Weather View 32 v70,2013-11-14 04:57:00,
2013-11-13 23:01:00,36.7,24.1,30.31,SSW,202,7.0,7.0,60,0.00,,,0.00,Weather View 32 v70,2013-11-14 05:01:00,
2013-11-13 23:02:00,36.7,24.1,30.31,SSW,202,7.0,7.0,60,0.00,,,0.00,Weather View 32 v70,2013-11-14 05:02:00,
2013-11-13 23:07:00,36.7,24.1,30.31,SSW,202,7.0,7.0,60,0.00,,,0.00,Weather View 32 v70,2013-11-14 05:07:00,
2013-11-13 23:12:00,36.7,24.1,30.31,SSW,202,7.0,7.0,60,0.00,,,0.00,Weather View 32 v70,2013-11-14 05:12:00,
2013-11-13 23:17:00,36.7,24.1,30.31,SSW,202,7.0,7.0,60,0.00,,,0.00,Weather View 32 v70,2013-11-14 05:17:00,
2013-11-13 23:22:00,36.7,24.1,30.31,SSW,202,7.0,7.0,60,0.00,,,0.00,Weather View 32 v70,2013-11-14 05:22:00,
2013-11-13 23:27:00,36.7,24.1,30.31,SSW,202,7.0,7.0,60,0.00,,,0.00,Weather View 32 v70,2013-11-14 05:27:00,
2013-11-13 23:32:00,36.7,24.1,30.31,SSW,202,7.0,7.0,60,0.00,,,0.00,Weather View 32 v70,2013-11-14 05:32:00,
2013-11-13 23:37:00,36.7,24.1,30.31,SSW,202,7.0,7.0,60,0.00,,,0.00,Weather View 32 v70,2013-11-14 05:37:00,
2013-11-13 23:42:00,36.7,24.1,30.31,SSW,202,7.0,7.0,60,0.00,,,0.00,Weather View 32 v70,2013-11-14 05:42:00,
2013-11-13 23:47:00,36.7,24.1,30.31,SSW,202,7.0,7.0,60,0.00,,,0.00,Weather View 32 v70,2013-11-14 05:47:00,
2013-11-13 23:52:00,36.7,24.1,30.31,SSW,202,7.0,7.0,60,0.00,,,0.00,Weather View 32 v70,2013-11-14 05:52:00,
2013-11-13 23:57:00,36.7,24.1,30.31,SSW,202,7.0,7.0,60,0.00,,,0.00,Weather View 32 v70,2013-11-14 05:57:00,